Regional Weather Roundup
Issued by NWS

Home | Current Version | Previous Version | Text Only | Print | Product List | Glossary On
Versions: 1 2 3 4 5 6 7 8 9 10 11 12 13 14 15 16 17 18 19 20 21 22 23 24 25 26 27 28 29 30 31 32 33 34 35 36 37 38 39 40 41 42 43 44 45 46 47 48 49 50
000
ASUS45 KPSR 291010
RWRAZ

ARIZONA REGIONAL HOURLY WEATHER ROUNDUP
NATIONAL WEATHER SERVICE PHOENIX AZ
300 AM MST SUN MAR 29 2015

NOTE: FAIR INDICATES FEW OR NO CLOUDS BELOW 12,000 FEET WITH NO
SIGNIFICANT WEATHER AND/OR OBSTRUCTIONS TO VISIBILITY.

AZZ001>003-036-291100-
NORTHWEST ARIZONA

CITY           SKY/WX    TMP DP  RH WIND       PRES   REMARKS
BULLHEAD CITY  CLEAR     68  25  19 CALM      29.97S
KINGMAN        CLEAR     55  20  25 SE12      30.10F
$$

AZZ004>008-015-016-018-291100-
NORTH CENTRAL ARIZONA

CITY           SKY/WX    TMP DP  RH WIND       PRES   REMARKS
GRAND CANYON   CLEAR     29  19  66 CALM      30.29F
WILLIAMS       CLEAR     37  21  52 S10       30.35F WCI  30
PRESCOTT       CLEAR     46  23  40 S9        30.21F
FLAGSTAFF      CLEAR     39  20  46 W5        30.30F
PAYSON         CLEAR     50  23  34 CALM      30.23S
PAGE           CLEAR     57  25  29 CALM      30.14S
$$

AZZ009>014-017-291100-
NORTHEAST ARIZONA

CITY           SKY/WX    TMP DP  RH WIND       PRES   REMARKS
WINSLOW        CLEAR     48  21  34 SW14      30.19F
SAINT JOHNS    PTCLDY    48  10  21 S6        30.23F
WINDOW ROCK    PTCLDY    45  16  31 CALM      30.27S
SHOW LOW       CLEAR     48  10  21 S3        30.29F
$$

AZZ023-291100-
GREATER PHOENIX AREA

CITY           SKY/WX    TMP DP  RH WIND       PRES   REMARKS
PHOENIX        CLEAR     69  29  22 SE3       29.97F
BUCKEYE        PTCLDY    57  32  38 NW6       29.98F
DEER VALLEY    CLEAR     68  28  22 N9        29.99F
SCOTTSDALE     CLEAR     63  35  35 CALM      30.00F
MESA-GATEWAY   CLEAR     63  23  22 SE8       30.01S
$$

AZZ027-028-291100-
SOUTHWEST MARICOPA COUNTY AND PINAL COUNTY

CITY           SKY/WX    TMP DP  RH WIND       PRES   REMARKS
CASA GRANDE    CLEAR     57  25  28 CALM      29.99S
$$

AZZ503-504-507>509-291100-
SOUTHEAST ARIZONA

CITY           SKY/WX    TMP DP  RH WIND       PRES   REMARKS
TUCSON         CLEAR     61  23  23 SE8       30.09F
NOGALES        CLEAR     53  23  31 CALM      30.15F
DOUGLAS        CLEAR     46  25  43 NW3       30.16S
SAFFORD        CLEAR     52  17  25 SE3       30.09F
$$

AZZ020-021-025-026-031-291100-
SOUTHWEST ARIZONA

CITY           SKY/WX    TMP DP  RH WIND       PRES   REMARKS
YUMA           MOCLDY    71  35  26 CALM      29.93F
$$

CAZ031-033-041-043-047-048-061-291100-
SOUTHERN CALIFORNIA

CITY           SKY/WX    TMP DP  RH WIND       PRES   REMARKS
DOWNTOWN L.A.  CLEAR     59  57  93 CALM      30.03F FOG
L.A. AIRPORT   FOG       57  57 100 CALM      30.03F VSB 1/4
SAN DIEGO      MOCLDY    63  58  83 NW5       30.05F
BURBANK        CLEAR     63  38  39 CALM      30.03S
ONTARIO        MOCLDY    62  43  49 CALM      30.03F
RIVERSIDE      PTCLDY    61  42  49 NE3       30.03F
PALM SPRINGS   PTCLDY    72  39  30 SW3       29.96F
EL CENTRO NAS  PTCLDY    68  25  19 W5        29.91F
IMPERIAL       PTCLDY    70  32  24 W3        29.90F
BLYTHE         PTCLDY    66  32  28 NW7       29.93F
NEEDLES        CLEAR     67  23  19 W3        29.96S
$$

NVZ020-UTZ003-291100-
SOUTHERN NEVADA-UTAH

CITY           SKY/WX    TMP DP  RH WIND       PRES   REMARKS
LAS VEGAS      CLEAR     67  21  17 SW6       29.98F
SALT LAKE CITY CLEAR     42  28  57 W5        30.27F
$$

NMZ009-TXZ055-291100-
NEW MEXICO-WEST TEXAS

CITY           SKY/WX    TMP DP  RH WIND       PRES   REMARKS
ALBUQUERQUE    CLEAR     50  14  23 SE7       30.17F
EL PASO        CLEAR     68   6   9 E9        30.08S
$$


........................KEY........................
SKY/WX - SKY CONDITION/WEATHER
TMP    - TEMPERATURE IN FAHRENHEIT
DP     - DEW POINT IN FAHRENHEIT
RH     - RELATIVE HUMIDITY IN PERCENT
WIND   - DIRECTION AND SPEED IN MILES PER HOUR (MPH)
VRB    - VARIABLE WIND DIRECTION
PRES   - MEAN SEA LEVEL PRESSURE IN INCHES OF MERCURY
         F - FALLING PRESSURE   R - RISING PRESSURE
         S - STEADY PRESSURE
VSB    - VISIBILITY IN MILES
HX     - HEAT INDEX IN FAHRENHEIT
WCI    - WIND CHILL INDEX IN FAHRENHEIT
TC     - TEMPERATURE IN CELSIUS WHICH IS ALSO KNOWN AS
         TEMPERATURE IN CENTIGRADE
AFB    - AIR FORCE BASE
         LUKE AFB IS LUKE AIR FORCE BASE
         DAVIS-MONTHAN IS DAVIS-MONTHAN AIR FORCE BASE
NAS    - NAVAL AIR STATION
         EL CENTRO NAS IS EL CENTRO NAVAL AIR STATION
N/A    - NOT AVAILABLE



USA.gov is the U.S. government's official web portal to all federal, state and local government web resources and services.